Regional Weather Roundup
Issued by NWS

Home | Current Version | Previous Version | Text Only | Print | Product List | Glossary Off
Versions: 1 2 3 4 5 6 7 8 9 10 11 12 13 14 15 16 17 18 19 20 21 22 23 24 25 26 27 28 29 30 31 32 33 34 35 36 37 38 39 40 41 42 43 44 45 46 47 48 49 50

000
ASUS45 KBOU 041607
RWRCO

WEATHER ROUNDUP FOR COLORADO
NATIONAL WEATHER SERVICE DENVER/BOULDER CO
1000 AM MDT FRI SEP 04 2015

NOTE: "FAIR" INDICATES FEW OR NO CLOUDS BELOW 12000 FEET WITH NO
SIGNIFICANT WEATHER AND/OR OBSTRUCTIONS TO VISIBILITY.

COZ001>005-013-030-031-041700-
...NORTHWEST COLORADO...

CITY           SKY/WX    TMP DP  RH WIND       PRES   REMARKS
CRAIG          MOSUNNY   69  45  41 E10       30.09F
HAYDEN         MOSUNNY   61  45  55 E9        30.12S
MEEKER         PTSUNNY   64  47  53 CALM      30.11R
MOUNT WERNER   NOT AVBL
STEAMBOAT SPGS MOSUNNY   61  45  55 CALM      30.14F
WALDEN         PTSUNNY   55  45  67 CALM      30.23S
$$

COZ006>008-011-041700-
...WEST CENTRAL VALLEYS...

CITY           SKY/WX    TMP DP  RH WIND       PRES   REMARKS
GRAND JUNCTION PTSUNNY   68  50  52 E18       30.04R
MONTROSE       CLOUDY    65  51  60 E6        30.14S
EAGLE          SUNNY     57  48  72 CALM      30.20F
RIFLE          MOSUNNY   63  50  62 NE3       30.09S
DELTA          RAIN      64  57  78 N7        30.11S
NUCLA          CLOUDY    63  50  63 CALM      30.17S
$$

COZ017>023-064>068-041700-
...SOUTHWEST COLORADO...

CITY           SKY/WX    TMP DP  RH WIND       PRES   REMARKS
DURANGO        LGT RAIN  58  51  78 E6        30.21R
CORTEZ         MOSUNNY   69  49  48 SW3       30.13S
PAGOSA SPRINGS LGT RAIN  59  45  58 CALM      30.28R
TELLURIDE      CLOUDY    54  46  75 SE3       30.33S
WOLF CREEK PAS NOT AVBL
$$

COZ009-010-012-014-032>034-037-058>063-041700-
...CENTRAL COLORADO...

CITY           SKY/WX    TMP DP  RH WIND       PRES   REMARKS
ASPEN          MOSUNNY   60  45  57 SW6       30.22S
BUENA VISTA    MOSUNNY   57  44  60 W3        30.26F
COPPER MTN     MOSUNNY   54  34  47 W8        30.51R
BERTHOUD PASS  CLOUDY    43  32  65 NW8       30.55R
COTTONWOOD PAS MOSUNNY   55  41  58 CALM      30.37S
GUNNISON       PTSUNNY   52  45  76 CALM      30.30S
KREMMLING      CLOUDY    50  45  81 CALM      30.27R
LEADVILLE      PTSUNNY   50  40  68 CALM      30.36
MONARCH PASS   PTSUNNY   50  34  53 S7        30.61R
SALIDA         MOSUNNY   61  44  54 CALM      30.30F
SUNLIGHT       MOSUNNY   52  43  71 CALM      30.43R
WILKERSON PASS CLOUDY    52  32  46 CALM      30.49R
$$

COZ069>075-041700-
...SAN LUIS VALLEY/SANGRE DE CRISTO MOUNTAINS...

CITY           SKY/WX    TMP DP  RH WIND       PRES   REMARKS
ALAMOSA        PTSUNNY   57  49  74 CALM      30.24S
LA VETA PASS   CLOUDY    57  41  54 MISG      30.41R
SAGUACHE       PTSUNNY   59  46  63 CALM      30.28S
$$

COZ035-036-038>040-041700-
...NORTHERN COLORADO FRONT RANGE...

CITY           SKY/WX    TMP DP  RH WIND       PRES   REMARKS
DENVER INTL AP MOSUNNY   74  50  42 SW9       30.04R
DMNS CITY PARK   N/A     75  48  37 E10       30.04S
AURORA         PTSUNNY   74  47  37 S6        30.07R
FRONT RANGE AP PTSUNNY   75  46  35 SW9       30.06R
ERIE MUNI ARPT SUNNY     72  50  45 CALM      30.02S
BOULDER MUN AP SUNNY     70  50  49 CALM      30.03R
CENTENNIAL     PTSUNNY   74  43  32 S7        30.08R
BROOMFIELD     PTSUNNY   73  48  40 VRB5      30.05S
FORT COLLINS   SUNNY     72  48  43 CALM      30.02S
LONGMONT       SUNNY     75  48  39 CALM      30.03R
$$

COZ041-046-047-076>085-087-088-041700-
...PIKES PEAK/PALMER DIVIDE AND SOUTHERN FOOTHILLS...

CITY           SKY/WX    TMP DP  RH WIND       PRES   REMARKS
COLO. SPRINGS  MOSUNNY   74  45  35 SE5       30.12S
A. F. ACADEMY  MOSUNNY   73  45  36 S6        30.13S
ELLICOTT       MOSUNNY  N/A N/A N/A SE8       30.11R
FALCON           N/A    N/A N/A N/A MISG        N/A
FORT CARSON    MOSUNNY   73  50  44 N3        30.09R
LIMON          MOSUNNY   79  49  34 S9        30.06S
MONUMENT HILL  SUNNY     72  37  28 W6        30.17R
TRINIDAD       SUNNY     77  47  34 NW5       30.10R
$$

COZ042>045-048>051-090-091-041700-
...NORTHEAST COLORADO...

CITY           SKY/WX    TMP DP  RH WIND       PRES   REMARKS
GREELEY ARPT   SUNNY     70  55  60 S5        30.02R
AKRON          PTSUNNY   77  50  38 SW10      30.00R
BURLINGTON     MOSUNNY   81  49  32 W3        29.99R
WRAY           CLOUDY    78  55  45 W3        29.94S
STERLING       PTSUNNY   72  59  64 S9        29.94S
HOLYOKE        MOSUNNY   79  57  47 SW5       29.93S
FORT MORGAN    PTSUNNY   71  54  55 SW9       30.00R
$$

COZ086-089-092>099-041700-
...SOUTHEAST COLORADO...

CITY           SKY/WX    TMP DP  RH WIND       PRES   REMARKS
PUEBLO         MOSUNNY   74  49  41 NW3       30.02F
LA JUNTA       SUNNY     81  50  33 SW6       30.00S
LAMAR          SUNNY     80  55  42 W7        29.96R
SPRINGFIELD      N/A     83  50  31 CALM      30.00R
$$




USA.gov is the U.S. government's official web portal to all federal, state and local government web resources and services.